Regional Weather Roundup
Issued by NWS Kansas City/Pleasant Hill, MO

Home | Current Version | Previous Version | Graphics & Text | Print | Product List | Glossary Off
Versions: 1 2 3 4 5 6 7 8 9 10 11 12 13 14 15 16 17 18 19 20 21 22 23 24 25 26 27 28 29 30 31 32 33 34 35 36 37 38 39 40 41 42 43 44 45 46 47 48 49 50

000
ASUS43 KEAX 050411
RWREAX

WEATHER ROUNDUP FOR EASTERN KANSAS AND NORTHWEST MISSOURI
NATIONAL WEATHER SERVICE KANSAS CITY/PLEASANT HILL MO
1100 PM CDT MON MAY 04 2015

KSZ040-057-103>105-MOZ028-029-037-043-050500-
...KANSAS CITY METROPOLITAN AREA...

CITY           SKY/WX    TMP DP  RH WIND       PRES   REMARKS
K.C. INTL      LGT RAIN  62  61  96 CALM      30.11S
K.C. DOWNTOWN  TSTM      64  60  87 NW3       30.11R FOG
LEES SUMMIT    CLOUDY    64  60  87 NE5       30.11R
OLATHE - IXD   TSTM      64  62  93 W9        30.15R
OLATHE - OJC   CLOUDY    65  62  90 NW12      30.11R THUNDER
LAWRENCE       CLOUDY    63  61  93 W6        30.13R

$$

MOZ001>008-011>017-020>025-030>033-038>040-044>046-053-054-050500-
...NORTHERN AND CENTRAL MISSOURI...

CITY           SKY/WX    TMP DP  RH WIND       PRES   REMARKS
ST. JOSEPH     RAIN      62  61  96 S12       30.11R FOG
MOSBY          CLOUDY    61  61 100 CALM      30.10R
WARRENSBURG    CLOUDY    68  59  73 NW3       30.10R
WHITEMAN AFB   NOT AVBL
CLINTON        CLOUDY    70  64  83 S3        30.10R
SEDALIA        CLOUDY    73  60  63 SW6       30.10R
WARSAW         NOT AVBL
MARSHALL       CLOUDY    72  63  73 NW7       30.09R
CHILLICOTHE      N/A     64  61  90 NW5       30.08F
MOBERLY        CLOUDY    70  59  68 SE6       30.07S THUNDER
KIRKSVILLE     CLOUDY    69  63  81 NW14G21   30.10R

$$

MOZ041-047>049-056>058-063>065-088>090-097-050500-
...EASTERN AND SOUTHERN MISSOURI...

CITY           SKY/WX    TMP DP  RH WIND       PRES   REMARKS
ST. LOUIS INTL MOCLDY    77  53  43 S12       30.11R
SPIRIT OF STL  PTCLDY    73  54  51 S8        30.09S
COLUMBIA       CLOUDY    69  59  70 S8        30.09R
JEFFERSON CITY CLOUDY    70  57  63 SE6       30.08R
MEXICO         CLOUDY    70  63  78 S7        30.08S
HANNIBAL       CLOUDY    66  64  94 SE3       30.08R
ROLLA          MOCLDY    69  55  60 S8        30.12R
LEBANON        PTCLDY    68  54  60 S6        30.14R
OSAGE BEACH    MOCLDY    70  54  56 CALM      30.12R
SPRINGFIELD    CLEAR     66  54  65 S7        30.13R
BRANSON        CLEAR     64  54  68 CALM      30.16R
NEVADA         CLOUDY    68  59  73 S3        30.12R
JOPLIN         PTCLDY    65  58  78 SE5       30.11R
WEST PLAINS    CLEAR     68  54  60 S6        30.17R

$$

IAZ060-094-KSZ022-034>040-054-083-096-NEZ052-066-093-050500-
...KANSAS...SOUTHEAST NEBRASKA AND IOWA...

CITY           SKY/WX    TMP DP  RH WIND       PRES   REMARKS
TOPEKA         CLOUDY    63  61  93 NW6       30.14R
MANHATTAN      TSTM      61  59  93 E6        30.09S
EMPORIA        CLOUDY    65  58  78 N15       30.12R
CHANUTE        PTCLDY    67  59  75 SE5       30.10R
WICHITA        CLOUDY    71  57  61 SE8       30.05R
OMAHA          CLOUDY    60  56  86 CALM      30.08R
LINCOLN        CLOUDY    60  58  92 CALM      30.10R FOG
FALLS CITY     LGT RAIN  62  60  93 S10       30.08R
LAMONI         LGT RAIN  63  61  93 NE6       30.06F FOG
DES MOINES     CLOUDY    64  60  87 E9        30.07F

$$



USA.gov is the U.S. government's official web portal to all federal, state and local government web resources and services.